Location: São Paulo
(23.5507°S, 46.6334°W)
Time: 10:26:13
(UTC-03:00)

Transit 4A - Pass Details

Date: 23 February 2026
Orbit: 864 x 977 km, 66.8° (Epoch: 11 March)

Event Time Altitude Azimuth Distance (km) Brightness Sun altitude
Rises 23:36:47 0° 194° (SSW) 3,499 11.4 -55.3°
Enters shadow 23:37:20 - 193° (SSW) 3,298 11.3 -55.4°
Reaches altitude 10° 23:39:26 10° 188° (S) 2,542 - -55.5°
Maximum altitude 23:45:00 44° 116° (ESE) 1,181 - -55.9°
Drops below altitude 10° 23:50:28 10° 44° (NE) 2,498 - -56.2°
Sets 23:53:02 0° 37° (NE) 3,431 - -56.3°
